Regional Weather Roundup
Issued by NWS

Home | Current Version | Previous Version | Text Only | Print | Product List | Glossary Off
Versions: 1 2 3 4 5 6 7 8 9 10 11 12 13 14 15 16 17 18 19 20 21 22 23 24 25 26 27 28 29 30 31 32 33 34 35 36 37 38 39 40 41 42 43 44 45 46 47 48 49

000
ASUS45 KBOU 230307
RWRCO

WEATHER ROUNDUP FOR COLORADO
NATIONAL WEATHER SERVICE DENVER/BOULDER CO
900 PM MDT MON SEP 22 2014

NOTE: "FAIR" INDICATES FEW OR NO CLOUDS BELOW 12000 FEET WITH NO
SIGNIFICANT WEATHER AND/OR OBSTRUCTIONS TO VISIBILITY.

COZ001>005-013-030-031-230400-
...NORTHWEST COLORADO...

CITY           SKY/WX    TMP DP  RH WIND       PRES   REMARKS
CRAIG          MOCLDY    57  47  69 NW6       30.23R
HAYDEN         CLOUDY    57  45  62 CALM      30.24S
MEEKER         LGT RAIN  58  50  75 NE5       30.27R
MOUNT WERNER   NOT AVBL
STEAMBOAT SPGS CLOUDY    54  49  85 CALM      30.26S
WALDEN         CLOUDY    46  41  81 W8G17     30.34R
$$

COZ006>008-011-230400-
...WEST CENTRAL VALLEYS...

CITY           SKY/WX    TMP DP  RH WIND       PRES   REMARKS
GRAND JUNCTION MOCLDY    66  52  60 NE8       30.14R
MONTROSE       PTCLDY    62  55  77 SE6       30.23R
EAGLE          MOCLDY    57  52  82 E6        30.29R
RIFLE          MOCLDY    63  52  67 SW5       30.20R
DELTA          MOCLDY    67  56  67 NE5       30.18R
NUCLA          PTCLDY    63  50  63 CALM      30.25R
$$

COZ017>023-064>068-230400-
...SOUTHWEST COLORADO...

CITY           SKY/WX    TMP DP  RH WIND       PRES   REMARKS
DURANGO        CLEAR     61  46  57 CALM      30.27R
CORTEZ         CLEAR     59  50  72 NE7       30.22R
PAGOSA SPRINGS CLEAR     56  47  72 CALM      30.35R
TELLURIDE      NOT AVBL
WOLF CREEK PAS PTCLDY    41  41 100 SW15G26   30.59S
$$

COZ009-010-012-014-032>034-037-058>063-230400-
...CENTRAL COLORADO...

CITY           SKY/WX    TMP DP  RH WIND       PRES   REMARKS
ASPEN          LGT RAIN  55  49  80 S5        30.34R
BUENA VISTA    PTCLDY    58  41  52 W6        30.32S
COPPER MTN     LGT RAIN  45  36  70 W12G20    30.58R
BERTHOUD PASS  FAIR      34  32  93 NW24G35   30.57S WCI  21
COTTONWOOD PAS PTCLDY    55  37  50 W10G18    30.43R
GUNNISON       MOCLDY    57  45  62 CALM      30.35R
KREMMLING      CLOUDY    55  43  62 CALM      30.31R
LEADVILLE      CLOUDY    49  39  68 N13       30.44R
MONARCH PASS   PTCLDY    41  36  81 W33       30.65S
SALIDA         PTCLDY    60  45  57 SW9       30.35S
SUNLIGHT       PTCLDY    45  45 100 CALM      30.52R
WILKERSON PASS NOT AVBL
$$

COZ069>075-230400-
...SAN LUIS VALLEY/SANGRE DE CRISTO MOUNTAINS...

CITY           SKY/WX    TMP DP  RH WIND       PRES   REMARKS
ALAMOSA        CLEAR     57  44  62 W9        30.29R
LA VETA PASS   CLEAR     46  43  87 SW7       30.45S
SAGUACHE       PTCLDY    55  46  71 N6        30.33R
$$

COZ035-036-038>040-230400-
...NORTHERN COLORADO FRONT RANGE...

CITY           SKY/WX    TMP DP  RH WIND       PRES   REMARKS
DENVER INTL AP PTCLDY    59  50  72 SE7       30.13R
DMNS CITY PARK   N/A     62  52  70 SE3       30.13S
AURORA         PTCLDY    57  52  83 S8        30.16R
FRONT RANGE AP NOT AVBL
ERIE MUNI ARPT NOT AVBL
BOULDER MUN AP PTCLDY    64  41  42 NW5       30.13R
CENTENNIAL     PTCLDY    60  50  69 S8        30.16R
BROOMFIELD     MOCLDY    66  45  45 CALM      30.15R
FORT COLLINS   PTCLDY    64  46  52 N12       30.13S
LONGMONT       PTCLDY    66  43  42 W7        30.13R
$$

COZ041-046-047-076>085-087-088-230400-
...PIKES PEAK/PALMER DIVIDE AND SOUTHERN FOOTHILLS...

CITY           SKY/WX    TMP DP  RH WIND       PRES   REMARKS
COLO. SPRINGS  PTCLDY    63  50  62 E5        30.18R
A. F. ACADEMY  CLEAR     59  50  72 N6        30.21R
ELLICOTT       NOT AVBL
FALCON         MOCLDY    58  49  71 N6        30.23S
FORT CARSON    CLEAR     65  51  61 NW10      30.15R
LIMON          CLOUDY    57  53  86 NW10      30.13S
MONUMENT HILL  MOCLDY    54  48  82 E3        30.23S
TRINIDAD       CLEAR     66  54  65 SW16G24   30.17R
$$

COZ042>045-048>051-090-091-230400-
...NORTHEAST COLORADO...

CITY           SKY/WX    TMP DP  RH WIND       PRES   REMARKS
GREELEY ARPT   PTCLDY    64  43  45 N9        30.11R
AKRON          MOCLDY    61  58  90 SE13      30.07S
BURLINGTON     CLOUDY    70  56  61 S20G25    30.09S
WRAY           CLOUDY    61  58  88 S9        30.06R
STERLING       MOCLDY    64  59  82 S3        30.04S
HOLYOKE        CLOUDY    63  57  82 SE10      30.05F
FORT MORGAN    MOCLDY    59  56  89 CALM      30.07F
$$

COZ086-089-092>099-230400-
...SOUTHEAST COLORADO...

CITY           SKY/WX    TMP DP  RH WIND       PRES   REMARKS
PUEBLO         CLEAR     65  58  78 SW5       30.06R
LA JUNTA       CLEAR     71  58  63 S17       30.06R
LAMAR          PTCLDY    70  57  63 S18G29    30.04F
SPRINGFIELD      N/A     65  59  81 S20G28    30.15S
$$


USA.gov is the U.S. government's official web portal to all federal, state and local government web resources and services.